This is the latest recevied weather packets stored in our database for station/object KC2TER. If no packets are shown the sender has not sent any weather packets the latest 10 day(s).
| Time | Temp. | Humidity | Pressure | Rain* | Wind** | Luminosity | Snow |
|---|---|---|---|---|---|---|---|
| 1777600022 | 12.22° C | 78% | 1009.9 hPa | 0 mm | - | 0 W/m² | - |
| 1777599718 | 12.22° C | 79% | 1009.8 hPa | 0 mm | - | 0 W/m² | - |
| 1777599414 | 11.67° C | 82% | 1009.8 hPa | 0 mm | - | 0 W/m² | - |
| 1777599111 | 11.67° C | 84% | 1009.6 hPa | 0 mm | - | 0 W/m² | - |
| 1777598811 | 11.11° C | 87% | 1009.6 hPa | 0 mm | - | 0 W/m² | - |
| 1777598510 | 11.11° C | 90% | 1009.4 hPa | 0 mm | - | 0 W/m² | - |
| 1777598210 | 10.56° C | 92% | 1009.3 hPa | 0 mm | - | 0 W/m² | - |
| 1777597909 | 10.56° C | 94% | 1009.1 hPa | 0 mm | - | 0 W/m² | - |
| 1777597603 | 11.11° C | 94% | 1009 hPa | 0 mm | - | 0 W/m² | - |
| 1777597299 | 11.11° C | 94% | 1008.8 hPa | 0 mm | - | 0 W/m² | - |
| 1777596995 | 11.11° C | 94% | 1008.6 hPa | 0 mm | - | 0 W/m² | - |
| 1777596692 | 11.11° C | 94% | 1008.6 hPa | 0 mm | - | 0 W/m² | - |
| 1777596389 | 11.11° C | 93% | 1008.5 hPa | 0 mm | - | 0 W/m² | - |
| 1777596086 | 11.11° C | 94% | 1008.3 hPa | 0 mm | - | 0 W/m² | - |
| 1777595782 | 11.11° C | 94% | 1008.4 hPa | 0 mm | - | 0 W/m² | - |
| 1777595477 | 11.11° C | 94% | 1008.1 hPa | 0 mm | - | 0 W/m² | - |
| 1777595174 | 11.11° C | 94% | 1008.5 hPa | 0 mm | - | 0 W/m² | - |
| 1777594870 | 11.67° C | 94% | 1008.5 hPa | 0 mm | - | 0 W/m² | - |
| 1777594566 | 11.67° C | 93% | 1008.4 hPa | 0 mm | - | 0 W/m² | - |
| 1777594263 | 11.67° C | 92% | 1008.3 hPa | 0 mm | - | 0 W/m² | - |
| 1777593959 | 11.67° C | 92% | 1008.2 hPa | 0 mm | - | 0 W/m² | - |
| 1777593655 | 12.22° C | 92% | 1008 hPa | 0 mm | - | 0 W/m² | - |
| 1777593351 | 12.22° C | 92% | 1008.1 hPa | 0 mm | - | 0 W/m² | - |
| 1777593049 | 12.22° C | 91% | 1008.1 hPa | 0 mm | - | 0 W/m² | - |
| 1777592749 | 12.78° C | 91% | 1008.1 hPa | 0 mm | - | 2 W/m² | - |
* Rain latest hour (hover to see other rain measurements)
** Current wind speed in m/s (hover to see current wind gust speed)